Home   Weather   Paderborn   Past weeks

Flag for Germany Past Weather in Paderborn, North Rhine-Westphalia, Germany — Yesterday and Last 2 Weeks

Now
46 °F

Scattered clouds.


Feels Like: 41 °F
Forecast: 34 / 56 °F
Wind: 10 mph from Northwest

Location: Paderborn / Lippstadt

Current Time: Apr 23, 2017 at 6:07:20 pm

Latest Report: Apr 23, 2017 at 5:20 pm


Visibility: N/A

Pressure: 30.21 "Hg

Humidity: 50%

Dew Point: 28 °F

Location of PaderbornLocation

Past Weather in Paderborn — Graph

°F

Paderborn Temperature Yesterday

Maximum temperature yesterday: 48 °F (at 12:20 am)
Minimum temperature yesterday: 39 °F (at 11:50 pm)
Average temperature yesterday: 45 °F

High & Low Weather Summary for the Past Weeks

 TemperatureHumidityPressure
High54 °F (Apr 21, 2:50 pm)100% (Apr 22, 3:50 am)30.60 "Hg (Apr 22, 3:50 am)
Low27 °F (Apr 20, 5:50 am)34% (Apr 20, 6:20 pm)30.18 "Hg (Apr 22, 2:50 am)
Average43 °F63%30.37 "Hg
* Reported Apr 19 8:50 am — Apr 23 4:50 pm, Paderborn, Weather by CustomWeather, © 2017

Note: Actual official high and low records may vary slightly from our data, if they occured in-between our weather recording intervals... More about our weather records

Advertising

Paderborn Weather History for the Previous 24 Hours

Scroll right to see more
 ConditionsComfort  
Time TempWeatherWind HumidityBarometerVisibility
4:50 pm
Sun, Apr 23
48 °FScattered clouds.9 mph54%30.21 "HgN/A
4:20 pm45 °FScattered showers. Partly sunny.7 mph66%30.21 "HgN/A
3:20 pm46 °FScattered showers. Partly sunny.12 mph53%30.21 "HgN/A
2:50 pm45 °FScattered clouds.10 mph57%30.21 "HgN/A
2:20 pm45 °FScattered clouds.10 mph57%30.21 "HgN/A
1:50 pm45 °FPartly sunny.12 mph53%30.21 "HgN/A
1:20 pm45 °FPartly sunny.13 mph57%30.21 "HgN/A
12:50 pm45 °FPartly sunny.9 mph57%30.24 "HgN/A
12:20 pm45 °FPartly sunny.12 mph57%30.24 "HgN/A
11:50 am43 °FPartly sunny.9 mph57%30.24 "HgN/A
11:20 am43 °FPartly sunny.10 mph61%30.24 "HgN/A
10:50 am43 °FPartly sunny.9 mph61%30.24 "HgN/A
10:20 am45 °FPartly sunny.10 mph66%30.24 "HgN/A
9:50 am43 °FPartly sunny.8 mph71%30.24 "HgN/A
9:20 am39 °FPartly sunny.8 mph81%30.24 "HgN/A
8:50 am39 °FBroken clouds.8 mph81%30.24 "HgN/A
8:20 am37 °FPartly sunny.7 mph87%30.21 "HgN/A
7:50 am37 °FPartly sunny.7 mph87%30.21 "HgN/A
7:20 am37 °FPartly sunny.8 mph87%30.21 "HgN/A
6:50 am37 °FBroken clouds.7 mph87%30.21 "HgN/A
6:20 am37 °FPartly sunny.7 mph81%30.21 "HgN/A
5:50 am37 °FPartly cloudy.8 mph81%30.21 "HgN/A
5:20 am37 °FPartly cloudy.7 mph81%30.21 "HgN/A
4:50 am37 °FPassing clouds.8 mph81%30.21 "HgN/A
4:20 am37 °FPassing clouds.7 mph81%30.21 "HgN/A
3:50 am37 °FPassing clouds.8 mph81%30.21 "HgN/A
3:20 am37 °FPassing clouds.7 mph81%30.21 "HgN/A
2:50 am37 °FPassing clouds.8 mph81%30.21 "HgN/A
2:20 am37 °FPassing clouds.7 mph81%30.21 "HgN/A
1:50 am37 °FPassing clouds.6 mph81%30.21 "HgN/A
1:20 am37 °FPassing clouds.6 mph81%30.21 "HgN/A
12:50 am37 °FPassing clouds.6 mph75%30.21 "HgN/A
12:20 am39 °FPassing clouds.5 mph70%30.21 "HgN/A
11:50 pm
Sat, Apr 22
39 °FPassing clouds.7 mph70%30.21 "HgN/A
11:20 pm41 °FPassing clouds.9 mph66%30.21 "HgN/A
10:50 pm43 °FPassing clouds.6 mph61%30.18 "HgN/A
10:20 pm43 °FPassing clouds.8 mph61%30.18 "HgN/A
9:20 pm43 °FPassing clouds.8 mph57%30.18 "HgN/A
8:20 pm45 °FPassing clouds.9 mph53%30.18 "HgN/A
7:50 pm45 °FSunny.12 mph53%30.18 "Hg10 mi
7:20 pm46 °FPassing clouds.8 mph50%30.18 "HgN/A
6:50 pm46 °FPassing clouds.10 mph46%30.18 "HgN/A
6:20 pm46 °FPassing clouds.10 mph46%30.18 "HgN/A
Weather by CustomWeather, © 2017

See weather overviewHow to use our weather pages